Voltar ao catálogo

SUPERVIEW NEO-1 04

AtivoCiênciaSSO
NORAD 63126·PAYLOAD·🇨🇳 China

Lançado Feb 27, 2025 de Jiuquan Satellite Launch Center

Loading…

Próximas Passagens (próximas 24 horas)

TLE

AtualizadoSource: Space-Track

Época: Sep 14, 2026, 23:13 UTC

1 63126U 25040B   26257.96742235  .00007727  00000-0  34468-3 0  9990
2 63126  97.3595  10.4522 0001063  38.7429 321.3884 15.21666135 85845

Acompanhe SUPERVIEW NEO-1 04 em tempo real com AllMySat

Download on the App Store